STARLINK-11273, 60913

Orbit data source: Space-Track

STARLINK-11273, 60913 is a payload satellite owned by SpaceX/Seattle (US) in LEO that was launched on Sat, 31 Aug 2024 UTC via an FALCON 9 launch vehicle from the Air Force Eastern Test Range (AFETR). Payload-class satellites include a variety of spacecraft equipped with specific instruments for various scientific and technological missions. These include communications satellites like Starlink; space stations such as the ISS; scientific satellites like the Hubble; Earth observation satellites from companies like Planet Labs, Umbra, and HawkEye 360; GPS; miniature CubeSats for education and research; and military/defense satellites.

Loading next visibility...
Identifier
60913, 2024-154L
Orbit
LEO
Country
Flag of USUS
Related business
Manufacturer
SpaceX/Seattle
Mission
Operational Commercial Communications
Bus & Motor
STARLINK V2MD, Unknown motor
Mass
960 kg wet, ~910 kg dry
Launch date (UTC)
2024-08-31 (2 years ago)
Launch vehicle
FALCON 9
Launch site
Air Force Eastern Test Range (AFETR)
Object type
Payload
Rocket body
Debris
Shape & HBR
Box + 2 Pan, 18.1 m
Radar Cross Section
36.964 m², Large (>1 m²)

Expand to show TLE details & history
Last TLE update: 1 day ago

TLE from 1 day ago
0 STARLINK-11273
1 60913U 24154L   26175.13250249 -.00000067  00000-0  43100-5 0  9999
2 60913  53.1592 326.4463 0001693  84.2135 275.9076 15.69708462105220
Epoch: 2026-06-24T03:10Z
TLE epoch observation values (Epoch: 2026-06-24T03:10:48.215Z)
Latitude
Longitude
6.45131°
Altitude
360.529 km
Speed
7.694 km/s
True Right ascension
21h 45m 47s
True Declination
0° 00' 00"
Sunlit
Object was in full shadow at epoch
Visualization orbit readout
Latitude
Unknown
Longitude
Unknown
Altitude
Unknown
Speed
Unknown
Apparent Right ascension
Unknown
Apparent Declination
Unknown
Sunlit
N/A
Visualization observer readout
Local Sidereal Time
18:27:31
Azimuth
Unknown
Elevation
Unknown
Doppler factor
Unknown
Orbital elements
Apogee altitude
361.133 km
Perigee altitude
358.851 km
Semi-major axis
6,738.129 km
Eccentricity
0.00017
Inclination
53.1592°
RAAN
326.4463°
Arg. of periapsis
84.2135°
True anomaly
275.8883°
Mean anomaly
275.9076°
Eccentric anomaly
275.89795°
Mean motion
3.92405 °/min
Orbital period
91.74 mins
BSTAR
0.00000431
Loading maneuver chart data...
Computing Atmospheric mass density...
Loading historical data...
Loading historical data...
Loading historical data...
Loading historical data...
Loading historical data...
Loading historical data...
Loading historical data...

Documentation

Showing up to 5 results
|